Regional Weather Roundup
Issued by NWS

Home | Current Version | Previous Version | Text Only | Print | Product List | Glossary Off
Versions: 1 2 3 4 5 6 7 8 9 10 11 12 13 14 15 16 17 18 19 20 21 22 23 24 25 26 27

000
ASUS45 KCYS 222310
RWRWY

WYOMING REGIONAL WEATHER ROUNDUP
NATIONAL WEATHER SERVICE CHEYENNE WY
500 PM MDT WED MAR 22 2017

NOTE:  "FAIR" INDICATES FEW OR NO CLOUDS BELOW 12,000 FEET
WITH NO SIGNIFICANT WEATHER AND/OR OBSTRUCTIONS TO VISIBILITY.

WYZ001-230000-
YELLOWSTONE NATIONAL PARK

CITY           SKY/WX    TMP DP  RH WIND       PRES   REMARKS
LK YELLOWSTONE   N/A     41  26  55 VRB5      29.91F
W YELLOWSTONE  NOT AVBL

$$
WYZ002>013-054>058-071-098>099-230000-
NORTHERN WYOMING

CITY           SKY/WX    TMP DP  RH WIND       PRES   REMARKS
JACKSON        MOSUNNY   43  39  87 SW8       29.89
CODY           PTSUNNY   61  35  37 N6        29.76F
GREYBULL       FAIR      67  40  37 E6        29.71F
WORLAND        FAIR      67  37  33 S13       29.72F
SHERIDAN       FAIR      58  41  53 N6        29.78F
BUFFALO        CLOUDY    58  40  51 NE3       29.82F
GILLETTE       FAIR      62  39  42 NE6       29.78F
HULETT         FAIR      63  37  39 NE6       29.80F
NEWCASTLE      FAIR      70  32  24 NW6       29.77S

$$
WYZ014>020-022>026-101>103-230000-
CENTRAL WYOMING

CITY           SKY/WX    TMP DP  RH WIND       PRES   REMARKS
BIG PINEY      CLOUDY    45  38  76 SE7       29.91S
PINEDALE       CLOUDY    43  34  70 E10       29.92S
DUBOIS         FAIR      46  32  57 NW12G23   29.86S
LANDER         LGT RAIN  48  39  71 S25G37    29.86R
RIVERTON       PTSUNNY   59  35  40 S12       29.82S
CASPER         FAIR      58  38  47 NW23G30   29.83F
DOUGLAS        PTSUNNY   70  29  21 W16       29.80F

$$
WYZ021-027>030-104>119-230000-
SOUTHERN WYOMING

CITY           SKY/WX    TMP DP  RH WIND       PRES   REMARKS
EVANSTON       FAIR      46  36  68 N10       29.87F
KEMMERER         N/A     41  34  75 W6        29.90F
FORT BRIDGER   FAIR      52  37  56 N7        29.91F THUNDER
ROCK SPRINGS   CLOUDY    56  35  45 NE10      29.85F
DIXON            N/A     63  21  19 SW13G20   29.91S
RAWLINS        CLOUDY    63  21  20 SW21G31   29.87F
SARATOGA       FAIR      61  21  21 S17G23    29.91S
LARAMIE        FAIR      63  20  19 SW26G38   29.89S
CHEYENNE       FAIR      64  29  26 S14       29.88F
TORRINGTON     FAIR      72  30  21 SE14      29.79F
PINE BLUFFS    FAIR      68  32  26 S18       29.86F

$$




USA.gov is the U.S. government's official web portal to all federal, state and local government web resources and services.